| time (UTC) | temp F | wind direction | speed MPH | gust MPH | rain 1hr in | rain 24hr in | rain mn in | humidity % | barometer mb |
| 20260507220319 | 55 | 275 | 2.0 | 6.0 | 0.00 | 0.00 | 0.00 | 49 | 1008.2 |
| 20260507215818 | 56 | 275 | 1.0 | 6.0 | 0.00 | 0.00 | 0.00 | 49 | 1008.1 |
| 20260507215316 | 56 | 275 | 0.0 | 4.0 | 0.00 | 0.00 | 0.00 | 50 | 1008.1 |
| 20260507215044 | 56 | 275 | 1.0 | 6.0 | 0.00 | 0.00 | 0.00 | 50 | 1007.9 |
| 20260507214315 | 56 | 275 | 2.0 | 7.0 | 0.00 | 0.00 | 0.00 | 52 | 1007.9 |
| 20260507213811 | 56 | 275 | 2.0 | 10.0 | 0.00 | 0.00 | 0.00 | 48 | 1007.8 |
| 20260507213309 | 56 | 275 | 1.0 | 10.0 | 0.00 | 0.00 | 0.00 | 48 | 1007.8 |
| 20260507212808 | 56 | 275 | 1.0 | 8.0 | 0.00 | 0.00 | 0.00 | 48 | 1007.8 |
| 20260507212307 | 56 | 275 | 1.0 | 8.0 | 0.00 | 0.00 | 0.00 | 47 | 1007.8 |
| 20260507211806 | 56 | 275 | 2.0 | 8.0 | 0.00 | 0.00 | 0.00 | 48 | 1007.7 |
| 20260507211306 | 56 | 275 | 2.0 | 8.0 | 0.00 | 0.00 | 0.00 | 46 | 1007.7 |
| 20260507210759 | 57 | 274 | 2.0 | 10.0 | 0.00 | 0.00 | 0.00 | 49 | 1007.5 |
| 20260507210256 | 58 | 274 | 2.0 | 10.0 | 0.00 | 0.00 | 0.00 | 46 | 1007.6 |
| 20260507205757 | 58 | 275 | 3.0 | 10.0 | 0.00 | 0.00 | 0.00 | 44 | 1007.7 |
| 20260507205258 | 58 | 275 | 2.0 | 9.0 | 0.00 | 0.00 | 0.00 | 45 | 1007.7 |
| 20260507204758 | 58 | 275 | 2.0 | 6.0 | 0.00 | 0.00 | 0.00 | 47 | 1007.5 |
| 20260507204259 | 58 | 275 | 3.0 | 9.0 | 0.00 | 0.00 | 0.00 | 47 | 1007.5 |
| 20260507204025 | 57 | 275 | 3.0 | 12.0 | 0.00 | 0.00 | 0.00 | 46 | 1007.7 |
| 20260507203254 | 57 | 277 | 2.0 | 12.0 | 0.00 | 0.00 | 0.00 | 44 | 1007.6 |
| 20260507202751 | 57 | 269 | 2.0 | 8.0 | 0.00 | 0.00 | 0.00 | 45 | 1007.6 |
| 20260507202522 | 57 | 269 | 2.0 | 10.0 | 0.00 | 0.00 | 0.00 | 43 | 1007.8 |
| 20260507201752 | 57 | 269 | 2.0 | 10.0 | 0.00 | 0.00 | 0.00 | 43 | 1007.8 |
| 20260507201254 | 57 | 267 | 2.0 | 8.0 | 0.00 | 0.00 | 0.00 | 44 | 1007.7 |
| 20260507201018 | 57 | 269 | 1.0 | 8.0 | 0.00 | 0.00 | 0.00 | 43 | 1007.7 |
| 20260507200247 | 57 | 269 | 1.0 | 4.0 | 0.00 | 0.00 | 0.00 | 46 | 1007.8 |
| 20260507195745 | 57 | 269 | 1.0 | 7.0 | 0.00 | 0.00 | 0.00 | 43 | 1007.7 |
| 20260507195246 | 58 | 269 | 1.0 | 7.0 | 0.00 | 0.00 | 0.00 | 41 | 1007.7 |
| 20260507194743 | 58 | 269 | 1.0 | 7.0 | 0.00 | 0.00 | 0.00 | 43 | 1007.8 |
| 20260507194246 | 57 | 269 | 2.0 | 8.0 | 0.00 | 0.00 | 0.00 | 43 | 1007.9 |
| 20260507193741 | 57 | 269 | 2.0 | 9.0 | 0.00 | 0.00 | 0.00 | 42 | 1007.9 |
| 20260507193243 | 57 | 269 | 3.0 | 9.0 | 0.00 | 0.00 | 0.00 | 42 | 1007.9 |
| 20260507192742 | 58 | 269 | 2.0 | 7.0 | 0.00 | 0.00 | 0.00 | 41 | 1007.9 |
| 20260507192242 | 58 | 271 | 3.0 | 11.0 | 0.00 | 0.00 | 0.00 | 40 | 1007.8 |
| 20260507191742 | 58 | 271 | 4.0 | 11.0 | 0.00 | 0.00 | 0.00 | 39 | 1007.9 |
| 20260507191242 | 58 | 269 | 3.0 | 11.0 | 0.00 | 0.00 | 0.00 | 41 | 1008.0 |
| 20260507191014 | 58 | 268 | 3.0 | 9.0 | 0.00 | 0.00 | 0.00 | 41 | 1008.0 |
| 20260507190240 | 59 | 269 | 3.0 | 10.0 | 0.00 | 0.00 | 0.00 | 41 | 1008.0 |
| 20260507185740 | 59 | 267 | 3.0 | 10.0 | 0.00 | 0.00 | 0.00 | 42 | 1007.9 |
| 20260507185241 | 59 | 269 | 3.0 | 9.0 | 0.00 | 0.00 | 0.00 | 45 | 1008.0 |
| 20260507184738 | 58 | 272 | 2.0 | 10.0 | 0.00 | 0.00 | 0.00 | 45 | 1008.1 |
| 20260507184235 | 57 | 272 | 2.0 | 10.0 | 0.00 | 0.00 | 0.00 | 45 | 1008.1 |
| 20260507183736 | 57 | 273 | 3.0 | 9.0 | 0.00 | 0.00 | 0.00 | 46 | 1008.2 |
| 20260507183228 | 57 | 273 | 3.0 | 9.0 | 0.00 | 0.00 | 0.00 | 45 | 1008.2 |
| 20260507182729 | 57 | 273 | 2.0 | 8.0 | 0.00 | 0.00 | 0.00 | 44 | 1008.2 |
| 20260507182230 | 56 | 273 | 2.0 | 8.0 | 0.00 | 0.00 | 0.00 | 45 | 1008.3 |
| 20260507182001 | 57 | 273 | 2.0 | 11.0 | 0.00 | 0.00 | 0.00 | 44 | 1008.4 |
| 20260507181230 | 57 | 273 | 2.0 | 11.0 | 0.00 | 0.00 | 0.00 | 44 | 1008.3 |
| 20260507181002 | 57 | 272 | 1.0 | 6.0 | 0.00 | 0.00 | 0.00 | 45 | 1008.3 |
| 20260507180231 | 57 | 272 | 3.0 | 9.0 | 0.00 | 0.00 | 0.00 | 46 | 1008.2 |
| 20260507175723 | 57 | 272 | 3.0 | 9.0 | 0.00 | 0.00 | 0.00 | 44 | 1008.3 |
| 20260507175225 | 57 | 272 | 2.0 | 11.0 | 0.00 | 0.00 | 0.00 | 46 | 1008.5 |
| 20260507174723 | 56 | 272 | 3.0 | 11.0 | 0.00 | 0.00 | 0.00 | 44 | 1008.5 |
| 20260507174223 | 56 | 274 | 3.0 | 10.0 | 0.00 | 0.00 | 0.00 | 43 | 1008.4 |
| 20260507173724 | 57 | 274 | 3.0 | 8.0 | 0.00 | 0.00 | 0.00 | 43 | 1008.5 |
| 20260507173225 | 57 | 274 | 2.0 | 8.0 | 0.00 | 0.00 | 0.00 | 43 | 1008.7 |
| 20260507172724 | 57 | 273 | 1.0 | 8.0 | 0.00 | 0.00 | 0.00 | 43 | 1008.8 |
| 20260507172218 | 57 | 273 | 1.0 | 10.0 | 0.00 | 0.00 | 0.00 | 44 | 1008.7 |
| 20260507171948 | 56 | 273 | 2.0 | 10.0 | 0.00 | 0.00 | 0.00 | 44 | 1008.9 |
| 20260507171214 | 56 | 275 | 1.0 | 4.0 | 0.00 | 0.00 | 0.00 | 45 | 1008.8 |
| 20260507170713 | 56 | 275 | 1.0 | 9.0 | 0.00 | 0.00 | 0.00 | 46 | 1008.8 |
| 20260507170213 | 56 | 275 | 4.0 | 12.0 | 0.00 | 0.00 | 0.00 | 44 | 1008.8 |
| 20260507165712 | 56 | 275 | 5.0 | 12.0 | 0.00 | 0.00 | 0.00 | 45 | 1008.9 |
| 20260507165205 | 56 | 257 | 3.0 | 10.0 | 0.00 | 0.00 | 0.00 | 45 | 1008.9 |
| 20260507164705 | 56 | 255 | 1.0 | 9.0 | 0.00 | 0.00 | 0.00 | 44 | 1008.9 |
| 20260507164206 | 56 | 252 | 1.0 | 8.0 | 0.00 | 0.00 | 0.00 | 43 | 1009.0 |
| 20260507163706 | 57 | 252 | 3.0 | 8.0 | 0.00 | 0.00 | 0.00 | 43 | 1009.0 |
| 20260507163204 | 57 | 252 | 2.0 | 8.0 | 0.00 | 0.00 | 0.00 | 42 | 1009.0 |
| 20260507162703 | 57 | 252 | 1.0 | 9.0 | 0.00 | 0.00 | 0.00 | 44 | 1009.1 |
| 20260507162204 | 57 | 251 | 2.0 | 9.0 | 0.00 | 0.00 | 0.00 | 44 | 1009.2 |
| 20260507161701 | 56 | 251 | 2.0 | 7.0 | 0.00 | 0.00 | 0.00 | 43 | 1009.2 |
| 20260507161202 | 56 | 252 | 1.0 | 7.0 | 0.00 | 0.00 | 0.00 | 45 | 1009.3 |
| 20260507160656 | 56 | 252 | 3.0 | 10.0 | 0.00 | 0.00 | 0.00 | 47 | 1009.2 |
| 20260507160157 | 55 | 252 | 2.0 | 14.0 | 0.00 | 0.00 | 0.00 | 45 | 1009.4 |
| 20260507155655 | 55 | 250 | 1.0 | 14.0 | 0.00 | 0.00 | 0.00 | 44 | 1009.5 |
| 20260507155154 | 55 | 259 | 1.0 | 7.0 | 0.00 | 0.00 | 0.00 | 48 | 1009.4 |
| 20260507154654 | 55 | 259 | 3.0 | 9.0 | 0.00 | 0.00 | 0.00 | 45 | 1009.4 |
| 20260507154153 | 55 | 259 | 4.0 | 10.0 | 0.00 | 0.00 | 0.00 | 44 | 1009.6 |
| 20260507153654 | 54 | 258 | 4.0 | 14.0 | 0.00 | 0.00 | 0.00 | 46 | 1009.5 |
| 20260507153149 | 54 | 258 | 2.0 | 14.0 | 0.00 | 0.00 | 0.00 | 45 | 1009.6 |
| 20260507152650 | 54 | 240 | 2.0 | 9.0 | 0.00 | 0.00 | 0.00 | 47 | 1009.6 |
| 20260507152151 | 54 | 229 | 2.0 | 6.0 | 0.00 | 0.00 | 0.00 | 49 | 1009.9 |
| 20260507151649 | 54 | 229 | 2.0 | 6.0 | 0.00 | 0.00 | 0.00 | 48 | 1010.0 |
| 20260507151149 | 54 | 229 | 3.0 | 10.0 | 0.00 | 0.00 | 0.00 | 48 | 1010.0 |
| 20260507150650 | 54 | 229 | 4.0 | 10.0 | 0.00 | 0.00 | 0.00 | 47 | 1009.9 |
| 20260507150144 | 53 | 313 | 3.0 | 10.0 | 0.00 | 0.00 | 0.00 | 48 | 1009.9 |
| 20260507145646 | 53 | 313 | 2.0 | 9.0 | 0.00 | 0.00 | 0.00 | 50 | 1010.0 |
| 20260507145416 | 53 | 313 | 2.0 | 11.0 | 0.00 | 0.00 | 0.00 | 53 | 1010.1 |
| 20260507144646 | 53 | 313 | 2.0 | 11.0 | 0.00 | 0.00 | 0.00 | 52 | 1010.2 |
| 20260507144146 | 53 | 302 | 2.0 | 9.0 | 0.00 | 0.00 | 0.00 | 51 | 1010.2 |
| 20260507143646 | 53 | 302 | 2.0 | 9.0 | 0.00 | 0.00 | 0.00 | 52 | 1010.3 |
| 20260507143141 | 53 | 308 | 2.0 | 9.0 | 0.00 | 0.00 | 0.00 | 54 | 1010.3 |
| 20260507142642 | 53 | 309 | 1.0 | 9.0 | 0.00 | 0.00 | 0.00 | 54 | 1010.3 |
| 20260507142140 | 52 | 309 | 2.0 | 9.0 | 0.00 | 0.00 | 0.00 | 56 | 1010.3 |
| 20260507141640 | 52 | 311 | 2.0 | 8.0 | 0.00 | 0.00 | 0.00 | 59 | 1010.4 |
| 20260507141141 | 52 | 311 | 2.0 | 8.0 | 0.00 | 0.00 | 0.00 | 58 | 1010.4 |
| 20260507140913 | 51 | 319 | 1.0 | 3.0 | 0.00 | 0.00 | 0.00 | 61 | 1010.5 |
| 20260507140407 | 51 | 319 | 1.0 | 6.0 | 0.00 | 0.00 | 0.00 | 62 | 1010.5 |
| 20260507135638 | 51 | 319 | 1.0 | 6.0 | 0.00 | 0.00 | 0.00 | 62 | 1010.6 |
| 20260507135138 | 50 | 319 | 1.0 | 3.0 | 0.00 | 0.00 | 0.00 | 64 | 1010.5 |
| 20260507134908 | 50 | 319 | 1.0 | 6.0 | 0.00 | 0.00 | 0.00 | 64 | 1010.6 |
| 20260507134136 | 49 | 319 | 1.0 | 8.0 | 0.00 | 0.00 | 0.00 | 67 | 1010.8 |
| 20260507133639 | 49 | 322 | 1.0 | 8.0 | 0.00 | 0.00 | 0.00 | 69 | 1010.7 |
| 20260507133133 | 48 | 325 | 1.0 | 4.0 | 0.00 | 0.00 | 0.00 | 72 | 1010.7 |
| 20260507132635 | 47 | 325 | 1.0 | 4.0 | 0.00 | 0.00 | 0.00 | 74 | 1010.9 |
| 20260507132403 | 46 | 325 | 1.0 | 4.0 | 0.00 | 0.00 | 0.00 | 77 | 1010.8 |
| 20260507131633 | 44 | 325 | 1.0 | 4.0 | 0.00 | 0.00 | 0.00 | 81 | 1010.8 |
| 20260507131134 | 43 | 325 | 1.0 | 4.0 | 0.00 | 0.00 | 0.00 | 83 | 1010.8 |
| 20260507130633 | 42 | 325 | 0.0 | 5.0 | 0.00 | 0.00 | 0.00 | 89 | 1010.9 |
| 20260507130130 | 40 | 325 | 0.0 | 5.0 | 0.00 | 0.00 | 0.00 | 93 | 1010.8 |
| 20260507125628 | 40 | 325 | 0.0 | 0.0 | 0.00 | 0.00 | 0.00 | 94 | 1010.8 |
| 20260507125129 | 39 | 325 | 0.0 | 0.0 | 0.00 | 0.00 | 0.00 | 94 | 1010.9 |
| 20260507124627 | 38 | 325 | 0.0 | 0.0 | 0.00 | 0.00 | 0.00 | 94 | 1010.9 |
| 20260507124126 | 38 | 325 | 0.0 | 0.0 | 0.00 | 0.00 | 0.00 | 94 | 1010.9 |
| 20260507123626 | 37 | 325 | 0.0 | 0.0 | 0.00 | 0.00 | 0.00 | 94 | 1010.9 |
| 20260507123125 | 37 | 325 | 0.0 | 0.0 | 0.00 | 0.00 | 0.00 | 94 | 1010.9 |
| 20260507122624 | 37 | 325 | 0.0 | 1.0 | 0.00 | 0.00 | 0.00 | 94 | 1011.2 |
| 20260507122119 | 36 | 325 | 0.0 | 2.0 | 0.00 | 0.01 | 0.00 | 94 | 1011.2 |
| 20260507121615 | 36 | 325 | 0.0 | 2.0 | 0.00 | 0.01 | 0.00 | 94 | 1011.1 |
| 20260507121114 | 35 | 325 | 0.0 | 0.0 | 0.00 | 0.01 | 0.00 | 94 | 1010.9 |
| 20260507120611 | 35 | 325 | 0.0 | 0.0 | 0.00 | 0.01 | 0.00 | 94 | 1011.0 |
| 20260507120118 | 35 | 325 | 0.0 | 1.0 | 0.00 | 0.02 | 0.00 | 94 | 1011.2 |
| 20260507120112 | 35 | 325 | 0.0 | 0.0 | 0.00 | 0.02 | 0.00 | 94 | 1011.1 |
| 20260507115106 | 35 | 325 | 0.0 | 2.0 | 0.00 | 0.02 | 0.00 | 94 | 1011.3 |
| 20260507114607 | 35 | 325 | 0.0 | 2.0 | 0.00 | 0.02 | 0.00 | 93 | 1011.2 |
| 20260507114107 | 35 | 325 | 0.0 | 0.0 | 0.00 | 0.02 | 0.00 | 93 | 1011.2 |
| 20260507113605 | 34 | 325 | 0.0 | 0.0 | 0.00 | 0.02 | 0.00 | 93 | 1011.3 |
| 20260507113103 | 34 | 325 | 0.0 | 0.0 | 0.00 | 0.03 | 0.00 | 93 | 1011.3 |
| 20260507112600 | 34 | 325 | 0.0 | 0.0 | 0.00 | 0.03 | 0.00 | 93 | 1011.3 |
| 20260507112100 | 34 | 325 | 0.0 | 0.0 | 0.00 | 0.03 | 0.00 | 93 | 1011.1 |
| 20260507111833 | 34 | 325 | 0.0 | 0.0 | 0.00 | 0.03 | 0.00 | 93 | 1011.1 |
| 20260507111331 | 34 | 325 | 0.0 | 0.0 | 0.00 | 0.04 | 0.00 | 93 | 1011.2 |
| 20260507110557 | 34 | 325 | 0.0 | 0.0 | 0.00 | 0.05 | 0.00 | 93 | 1011.2 |
| 20260507110328 | 34 | 325 | 0.0 | 0.0 | 0.00 | 0.05 | 0.00 | 93 | 1011.3 |
| 20260507105554 | 34 | 325 | 0.0 | 0.0 | 0.00 | 0.06 | 0.00 | 93 | 1011.1 |
| 20260507105055 | 33 | 325 | 0.0 | 0.0 | 0.00 | 0.07 | 0.00 | 93 | 1011.1 |
| 20260507104825 | 33 | 325 | 0.0 | 0.0 | 0.00 | 0.08 | 0.00 | 93 | 1011.1 |
| 20260507104053 | 33 | 325 | 0.0 | 0.0 | 0.00 | 0.09 | 0.00 | 92 | 1011.1 |
| 20260507103550 | 33 | 325 | 0.0 | 0.0 | 0.00 | 0.10 | 0.00 | 92 | 1010.9 |
| 20260507103051 | 33 | 325 | 0.0 | 0.0 | 0.00 | 0.11 | 0.00 | 92 | 1010.9 |
| 20260507102550 | 33 | 325 | 0.0 | 0.0 | 0.00 | 0.12 | 0.00 | 92 | 1010.8 |
| 20260507102044 | 33 | 325 | 0.0 | 0.0 | 0.00 | 0.13 | 0.00 | 92 | 1010.8 |
| 20260507101542 | 33 | 325 | 0.0 | 0.0 | 0.00 | 0.14 | 0.00 | 92 | 1010.8 |
| 20260507101040 | 33 | 325 | 0.0 | 0.0 | 0.00 | 0.15 | 0.00 | 92 | 1010.8 |
| 20260507100542 | 33 | 325 | 0.0 | 0.0 | 0.00 | 0.16 | 0.00 | 92 | 1010.8 |
| 20260507100034 | 33 | 325 | 0.0 | 0.0 | 0.00 | 0.16 | 0.00 | 92 | 1010.8 |
| 20260507095806 | 34 | 325 | 0.0 | 0.0 | 0.00 | 0.17 | 0.00 | 91 | 1010.8 |
| 20260507095530 | 33 | 325 | 0.0 | 0.0 | 0.00 | 0.17 | 0.00 | 91 | 1010.8 |
| 20260507094800 | 34 | 325 | 0.0 | 0.0 | 0.00 | 0.18 | 0.00 | 91 | 1010.7 |
| 20260507094259 | 34 | 325 | 0.0 | 0.0 | 0.00 | 0.19 | 0.00 | 91 | 1010.8 |
| 20260507093754 | 34 | 325 | 0.0 | 0.0 | 0.00 | 0.19 | 0.00 | 91 | 1010.7 |
| 20260507093024 | 34 | 325 | 0.0 | 0.0 | 0.00 | 0.20 | 0.00 | 91 | 1010.8 |
| 20260507092754 | 34 | 325 | 0.0 | 0.0 | 0.00 | 0.21 | 0.00 | 91 | 1010.8 |
| 20260507092023 | 34 | 325 | 0.0 | 0.0 | 0.00 | 0.22 | 0.00 | 91 | 1010.8 |
| 20260507091522 | 34 | 325 | 0.0 | 0.0 | 0.00 | 0.24 | 0.00 | 91 | 1010.9 |
| 20260507091021 | 34 | 325 | 0.0 | 0.0 | 0.00 | 0.25 | 0.00 | 91 | 1010.9 |
| 20260507090750 | 34 | 325 | 0.0 | 0.0 | 0.00 | 0.26 | 0.00 | 91 | 1010.8 |
| 20260507090250 | 35 | 325 | 0.0 | 0.0 | 0.00 | 0.28 | 0.00 | 90 | 1010.8 |
| 20260507085518 | 35 | 325 | 0.0 | 0.0 | 0.00 | 0.30 | 0.00 | 90 | 1010.8 |
| 20260507085015 | 35 | 325 | 0.0 | 0.0 | 0.00 | 0.31 | 0.00 | 90 | 1010.8 |
| 20260507084750 | 35 | 325 | 0.0 | 0.0 | 0.00 | 0.35 | 0.00 | 90 | 1010.9 |
| 20260507084514 | 35 | 325 | 0.0 | 0.0 | 0.00 | 0.32 | 0.00 | 90 | 1010.8 |
| 20260507083507 | 35 | 325 | 0.0 | 0.0 | 0.00 | 0.39 | 0.00 | 90 | 1010.9 |
| 20260507083238 | 35 | 325 | 0.0 | 0.0 | 0.00 | 0.39 | 0.00 | 89 | 1010.9 |
| 20260507082504 | 35 | 325 | 0.0 | 0.0 | 0.00 | 0.40 | 0.00 | 89 | 1010.9 |
| 20260507082002 | 35 | 325 | 0.0 | 0.0 | 0.00 | 0.41 | 0.00 | 89 | 1010.9 |
| 20260507081502 | 36 | 325 | 0.0 | 0.0 | 0.00 | 0.42 | 0.00 | 89 | 1011.0 |
| 20260507081000 | 36 | 325 | 0.0 | 0.0 | 0.00 | 0.43 | 0.00 | 89 | 1011.1 |
| 20260507080455 | 36 | 325 | 0.0 | 0.0 | 0.00 | 0.44 | 0.00 | 89 | 1011.1 |
| 20260507075954 | 36 | 325 | 0.0 | 0.0 | 0.00 | 0.45 | 0.00 | 88 | 1011.1 |
| 20260507075451 | 36 | 325 | 0.0 | 0.0 | 0.00 | 0.45 | 0.00 | 88 | 1011.0 |
| 20260507074952 | 37 | 325 | 0.0 | 0.0 | 0.00 | 0.46 | 0.00 | 88 | 1011.1 |
| 20260507074451 | 37 | 325 | 0.0 | 0.0 | 0.00 | 0.47 | 0.00 | 88 | 1011.0 |
| 20260507073953 | 37 | 325 | 0.0 | 0.0 | 0.00 | 0.47 | 0.00 | 87 | 1011.0 |
| 20260507073720 | 37 | 325 | 0.0 | 0.0 | 0.00 | 0.48 | 0.00 | 87 | 1010.9 |
| 20260507072949 | 37 | 325 | 0.0 | 0.0 | 0.00 | 0.49 | 0.00 | 87 | 1010.9 |
| 20260507072447 | 38 | 325 | 0.0 | 0.0 | 0.00 | 0.49 | 0.00 | 87 | 1010.9 |
| 20260507072217 | 38 | 325 | 0.0 | 0.0 | 0.00 | 0.49 | 0.00 | 86 | 1011.0 |
| 20260507071445 | 38 | 325 | 0.0 | 0.0 | 0.00 | 0.50 | 0.00 | 86 | 1011.0 |
| 20260507071216 | 38 | 325 | 0.0 | 0.0 | 0.00 | 0.51 | 0.00 | 86 | 1011.1 |
| 20260507070443 | 38 | 325 | 0.0 | 0.0 | 0.00 | 0.51 | 0.00 | 85 | 1011.1 |
| 20260507065943 | 39 | 325 | 0.0 | 0.0 | 0.00 | 0.52 | 0.00 | 85 | 1011.0 |
| 20260507065442 | 39 | 325 | 0.0 | 0.0 | 0.00 | 0.53 | 0.00 | 85 | 1011.1 |
| 20260507064941 | 39 | 325 | 0.0 | 0.0 | 0.00 | 0.53 | 0.00 | 86 | 1011.1 |
| 20260507064438 | 39 | 325 | 0.0 | 0.0 | 0.00 | 0.53 | 0.00 | 85 | 1011.1 |
| 20260507063935 | 40 | 325 | 0.0 | 0.0 | 0.00 | 0.53 | 0.00 | 85 | 1011.2 |
| 20260507063435 | 40 | 325 | 0.0 | 0.0 | 0.00 | 0.54 | 0.00 | 84 | 1011.2 |
| 20260507062935 | 40 | 325 | 0.0 | 0.0 | 0.00 | 0.54 | 0.00 | 84 | 1011.2 |
| 20260507062433 | 40 | 325 | 0.0 | 0.0 | 0.00 | 0.55 | 0.00 | 84 | 1011.2 |
| 20260507061933 | 41 | 325 | 0.0 | 0.0 | 0.00 | 0.55 | 0.00 | 83 | 1011.2 |
| 20260507061431 | 41 | 325 | 0.0 | 0.0 | 0.00 | 0.56 | 0.00 | 83 | 1011.1 |
| 20260507061159 | 41 | 325 | 0.0 | 0.0 | 0.00 | 0.56 | 0.00 | 82 | 1011.3 |
| 20260507060429 | 42 | 325 | 0.0 | 0.0 | 0.00 | 0.57 | 0.00 | 82 | 1011.3 |
| 20260507055928 | 42 | 325 | 0.0 | 0.0 | 0.00 | 0.57 | 0.00 | 82 | 1011.4 |
| 20260507055427 | 42 | 325 | 0.0 | 0.0 | 0.00 | 0.57 | 0.00 | 81 | 1011.4 |
| 20260507054928 | 42 | 325 | 0.0 | 0.0 | 0.00 | 0.57 | 0.00 | 81 | 1011.4 |
| 20260507054422 | 43 | 325 | 0.0 | 0.0 | 0.00 | 0.57 | 0.00 | 80 | 1011.4 |
| 20260507053922 | 43 | 325 | 0.0 | 0.0 | 0.00 | 0.58 | 0.00 | 79 | 1011.4 |
| 20260507053424 | 43 | 325 | 0.0 | 0.0 | 0.00 | 0.58 | 0.00 | 78 | 1011.2 |
| 20260507052923 | 43 | 325 | 0.0 | 0.0 | 0.00 | 0.59 | 0.00 | 78 | 1011.4 |
| 20260507052653 | 43 | 325 | 0.0 | 0.0 | 0.00 | 0.60 | 0.00 | 78 | 1011.4 |
| 20260507051923 | 44 | 325 | 0.0 | 0.0 | 0.00 | 0.60 | 0.00 | 78 | 1011.5 |
| 20260507051417 | 44 | 325 | 0.0 | 0.0 | 0.00 | 0.61 | 0.00 | 78 | 1011.6 |
| 20260507050918 | 44 | 325 | 0.0 | 0.0 | 0.00 | 0.61 | 0.00 | 77 | 1011.6 |
| 20260507050417 | 44 | 325 | 0.0 | 0.0 | 0.00 | 0.61 | 0.00 | 77 | 1011.6 |
| 20260507045918 | 44 | 325 | 0.0 | 0.0 | 0.00 | 0.61 | 0.00 | 76 | 1011.6 |
| 20260507045415 | 44 | 325 | 0.0 | 0.0 | 0.00 | 0.62 | 0.00 | 75 | 1011.7 |
| 20260507044914 | 44 | 325 | 0.0 | 0.0 | 0.00 | 0.62 | 0.00 | 75 | 1011.7 |
| 20260507044410 | 44 | 325 | 0.0 | 0.0 | 0.00 | 0.62 | 0.00 | 75 | 1011.7 |
| 20260507043907 | 44 | 325 | 0.0 | 0.0 | 0.00 | 0.62 | 0.00 | 75 | 1011.7 |
| 20260507043636 | 45 | 325 | 0.0 | 0.0 | 0.00 | 0.63 | 0.00 | 73 | 1011.8 |
| 20260507042903 | 45 | 325 | 0.0 | 0.0 | 0.00 | 0.64 | 0.00 | 72 | 1011.9 |
| 20260507042402 | 45 | 325 | 0.0 | 0.0 | 0.00 | 0.64 | 0.00 | 71 | 1011.9 |
| 20260507041900 | 45 | 325 | 0.0 | 0.0 | 0.00 | 0.64 | 0.00 | 71 | 1011.8 |
| 20260507041358 | 45 | 325 | 0.0 | 0.0 | 0.00 | 0.64 | 0.00 | 71 | 1011.8 |
| 20260507040857 | 45 | 325 | 0.0 | 0.0 | 0.00 | 0.65 | 0.00 | 72 | 1012.0 |
| 20260507040358 | 45 | 325 | 0.0 | 0.0 | 0.00 | 0.65 | 0.00 | 70 | 1011.9 |
| 20260507035854 | 45 | 325 | 0.0 | 0.0 | 0.00 | 0.65 | 0.65 | 71 | 1011.8 |
| 20260507035354 | 45 | 325 | 0.0 | 1.0 | 0.00 | 0.65 | 0.65 | 71 | 1011.7 |
| 20260507034850 | 45 | 325 | 0.0 | 1.0 | 0.00 | 0.65 | 0.65 | 69 | 1011.7 |
| 20260507034345 | 46 | 325 | 0.0 | 1.0 | 0.00 | 0.65 | 0.65 | 71 | 1011.6 |
| 20260507033845 | 46 | 325 | 0.0 | 1.0 | 0.00 | 0.65 | 0.65 | 68 | 1011.7 |
| 20260507033342 | 46 | 325 | 0.0 | 1.0 | 0.00 | 0.65 | 0.65 | 69 | 1011.7 |
| 20260507032842 | 46 | 325 | 0.0 | 1.0 | 0.00 | 0.65 | 0.65 | 69 | 1011.7 |
| 20260507032338 | 46 | 325 | 0.0 | 0.0 | 0.00 | 0.65 | 0.65 | 70 | 1011.7 |
| 20260507031838 | 46 | 325 | 0.0 | 1.0 | 0.00 | 0.66 | 0.65 | 70 | 1011.7 |
| 20260507031610 | 46 | 325 | 0.0 | 1.0 | 0.00 | 0.66 | 0.65 | 68 | 1011.8 |
| 20260507030838 | 46 | 325 | 0.0 | 0.0 | 0.00 | 0.66 | 0.65 | 70 | 1011.8 |
| 20260507030336 | 46 | 325 | 0.0 | 0.0 | 0.00 | 0.67 | 0.65 | 69 | 1011.7 |
| 20260507025838 | 46 | 325 | 0.0 | 1.0 | 0.00 | 0.67 | 0.65 | 68 | 1011.8 |
| 20260507025331 | 46 | 325 | 0.0 | 1.0 | 0.00 | 0.67 | 0.65 | 68 | 1011.8 |
| 20260507024831 | 46 | 325 | 0.0 | 0.0 | 0.00 | 0.67 | 0.65 | 69 | 1011.7 |
| 20260507024335 | 46 | 325 | 0.0 | 0.0 | 0.00 | 0.68 | 0.65 | 67 | 1011.5 |
| 20260507024329 | 46 | 325 | 0.0 | 0.0 | 0.00 | 0.67 | 0.65 | 69 | 1011.5 |
| 20260507023601 | 46 | 325 | 0.0 | 0.0 | 0.00 | 0.69 | 0.65 | 67 | 1011.4 |
| 20260507022830 | 46 | 325 | 0.0 | 0.0 | 0.00 | 0.69 | 0.65 | 68 | 1011.4 |
| 20260507022322 | 46 | 325 | 0.0 | 0.0 | 0.00 | 0.71 | 0.65 | 69 | 1011.2 |
| 20260507021823 | 46 | 325 | 0.0 | 1.0 | 0.00 | 0.73 | 0.65 | 67 | 1011.2 |
| 20260507021324 | 46 | 325 | 0.0 | 1.0 | 0.00 | 0.74 | 0.65 | 66 | 1011.2 |
| 20260507020822 | 46 | 325 | 0.0 | 1.0 | 0.00 | 0.76 | 0.65 | 66 | 1011.2 |
| 20260507020323 | 46 | 325 | 0.0 | 0.0 | 0.00 | 0.78 | 0.65 | 66 | 1011.2 |
| 20260507015816 | 46 | 325 | 0.0 | 0.0 | 0.00 | 0.80 | 0.65 | 67 | 1011.3 |
| 20260507015314 | 47 | 325 | 0.0 | 0.0 | 0.00 | 0.84 | 0.65 | 66 | 1011.3 |
| 20260507014813 | 47 | 325 | 0.0 | 0.0 | 0.00 | 0.87 | 0.65 | 66 | 1011.3 |
| 20260507014309 | 47 | 325 | 0.0 | 0.0 | 0.00 | 0.89 | 0.65 | 66 | 1011.4 |
| 20260507013810 | 47 | 325 | 0.0 | 0.0 | 0.00 | 0.89 | 0.65 | 66 | 1011.4 |
| 20260507013307 | 47 | 325 | 0.0 | 1.0 | 0.00 | 0.89 | 0.65 | 66 | 1011.3 |
| 20260507012804 | 47 | 325 | 0.0 | 1.0 | 0.00 | 0.89 | 0.65 | 65 | 1011.2 |
| 20260507012307 | 47 | 325 | 0.0 | 1.0 | 0.00 | 0.89 | 0.65 | 64 | 1011.3 |
| 20260507011804 | 47 | 325 | 0.0 | 1.0 | 0.00 | 0.89 | 0.65 | 65 | 1011.3 |
| 20260507011303 | 47 | 325 | 0.0 | 0.0 | 0.00 | 0.89 | 0.65 | 63 | 1011.3 |
| 20260507010802 | 47 | 325 | 0.0 | 0.0 | 0.00 | 0.89 | 0.65 | 65 | 1011.3 |
| 20260507010256 | 47 | 325 | 0.0 | 1.0 | 0.00 | 0.89 | 0.65 | 65 | 1011.2 |
| 20260507005754 | 47 | 325 | 0.0 | 1.0 | 0.00 | 0.89 | 0.65 | 64 | 1011.1 |
| 20260507005252 | 48 | 325 | 0.0 | 1.0 | 0.00 | 0.89 | 0.65 | 65 | 1011.1 |
| 20260507005020 | 48 | 325 | 0.0 | 1.0 | 0.00 | 0.89 | 0.65 | 64 | 1011.2 |
| 20260507004250 | 48 | 325 | 0.0 | 3.0 | 0.00 | 0.89 | 0.65 | 62 | 1011.1 |
| 20260507003745 | 48 | 325 | 0.0 | 3.0 | 0.00 | 0.89 | 0.65 | 61 | 1011.2 |
| 20260507003246 | 48 | 325 | 0.0 | 1.0 | 0.00 | 0.89 | 0.65 | 62 | 1011.2 |
| 20260507002746 | 48 | 325 | 0.0 | 0.0 | 0.00 | 0.89 | 0.65 | 63 | 1011.2 |
| 20260507002518 | 48 | 325 | 0.0 | 1.0 | 0.00 | 0.89 | 0.65 | 62 | 1011.3 |
| 20260507001745 | 49 | 325 | 0.0 | 1.0 | 0.00 | 0.89 | 0.65 | 61 | 1011.2 |
| 20260507001245 | 49 | 325 | 0.0 | 1.0 | 0.00 | 0.89 | 0.65 | 60 | 1011.1 |
| 20260507000737 | 49 | 325 | 0.0 | 1.0 | 0.00 | 0.89 | 0.65 | 61 | 1011.1 |
| 20260507000235 | 49 | 325 | 0.0 | 2.0 | 0.00 | 0.89 | 0.65 | 60 | 1011.1 |
| 20260506235738 | 49 | 325 | 0.0 | 1.0 | 0.00 | 0.89 | 0.65 | 58 | 1011.3 |
| 20260506235734 | 49 | 325 | 0.0 | 2.0 | 0.00 | 0.89 | 0.65 | 58 | 1011.3 |
| 20260506234734 | 49 | 325 | 0.0 | 0.0 | 0.00 | 0.90 | 0.65 | 60 | 1011.2 |
| 20260506234230 | 49 | 325 | 0.0 | 1.0 | 0.00 | 0.92 | 0.65 | 56 | 1011.2 |
| 20260506233726 | 49 | 325 | 0.0 | 2.0 | 0.00 | 0.92 | 0.65 | 56 | 1011.1 |
| 20260506233228 | 49 | 325 | 0.0 | 2.0 | 0.00 | 0.92 | 0.65 | 58 | 1010.6 |
| 20260506232728 | 50 | 325 | 0.0 | 3.0 | 0.00 | 0.92 | 0.65 | 54 | 1010.8 |
| 20260506232226 | 50 | 325 | 0.0 | 3.0 | 0.00 | 0.92 | 0.65 | 54 | 1010.6 |
| 20260506231727 | 50 | 325 | 0.0 | 4.0 | 0.00 | 0.92 | 0.65 | 54 | 1010.6 |
| 20260506231453 | 50 | 325 | 0.0 | 4.0 | 0.00 | 0.92 | 0.65 | 54 | 1010.4 |
| 20260506230722 | 50 | 325 | 0.0 | 3.0 | 0.00 | 0.92 | 0.65 | 55 | 1010.5 |
| 20260506230223 | 50 | 325 | 0.0 | 3.0 | 0.00 | 0.92 | 0.65 | 56 | 1010.4 |
| 20260506225722 | 50 | 325 | 0.0 | 3.0 | 0.00 | 0.92 | 0.65 | 54 | 1010.3 |
| 20260506225221 | 51 | 325 | 0.0 | 2.0 | 0.00 | 0.92 | 0.65 | 56 | 1010.2 |
| 20260506224718 | 51 | 325 | 0.0 | 3.0 | 0.00 | 0.92 | 0.65 | 56 | 1010.1 |
| 20260506224212 | 51 | 325 | 0.0 | 4.0 | 0.00 | 0.92 | 0.65 | 54 | 1010.2 |
| 20260506223709 | 51 | 326 | 1.0 | 6.0 | 0.00 | 0.92 | 0.65 | 55 | 1010.2 |
| 20260506223208 | 51 | 326 | 1.0 | 6.0 | 0.00 | 0.92 | 0.65 | 52 | 1010.0 |
| 20260506222707 | 51 | 326 | 0.0 | 4.0 | 0.00 | 0.92 | 0.65 | 55 | 1010.0 |
| 20260506222208 | 51 | 326 | 0.0 | 2.0 | 0.00 | 0.92 | 0.65 | 53 | 1010.0 |
| 20260506221709 | 51 | 326 | 0.0 | 3.0 | 0.00 | 0.92 | 0.65 | 54 | 1009.6 |
| 20260506221205 | 52 | 326 | 1.0 | 4.0 | 0.00 | 0.92 | 0.65 | 54 | 1009.7 |
| 20260506220704 | 52 | 326 | 0.0 | 4.0 | 0.00 | 0.92 | 0.65 | 53 | 1009.6 |